"Pseudo-MPEC" for P21XXNv

Created 2024 Sep 11 0:22:18 UT using Find_Orb

Click here for an explanation of pseudo-MPECs

 
 Astrometry: 
     P21XXNv* C2024 09 04.41192622 29 22.676-11 56 55.80   ~94Bq 22.20wXNEOCPF52
     P21XXNv  C2024 09 04.42443322 29 21.894-11 57 10.90   ~94Bq 22.15wXNEOCPF52
     P21XXNv  C2024 09 04.44948622 29 20.377-11 57 40.57   ~94Bq 22.38wXNEOCPF52
     P21XXNv  C2024 09 04.50292622 29 17.110-11 58 44.59   ~94Kb 21.60GVNEOCPF52
     P21XXNv  C2024 09 04.50358322 29 17.092-11 58 44.96   ~94Kb 21.68GVNEOCPF52
     P21XXNv KC2024 09 07.30581222 26 36.668-12 54 02.84   ~977q 21.96GVNEOCPV06
     P21XXNv KC2024 09 07.31057722 26 36.413-12 54 08.46   ~977q 21.80GVNEOCPV06
     P21XXNv KC2024 09 07.31534522 26 36.121-12 54 14.08   ~977q 21.72GVNEOCPV06
     P21XXNv KC2024 09 07.32011422 26 35.830-12 54 19.58   ~977q 21.78GVNEOCPV06
     P21XXNv  C2024 09 10.35329522 23 47.970-13 52 26.65   ~9AK7 22.28wXNEOCPF52
     P21XXNv  C2024 09 10.36725322 23 47.181-13 52 42.39   ~9AK7 22.37wXNEOCPF52
     P21XXNv  C2024 09 10.38124722 23 46.380-13 52 58.14   ~9AK7 22.12wXNEOCPF52

Station data:
(F52) Pan-STARRS 2, Haleakala  (N20.707382 W156.255910)  US/Hawaii.
   Observers J. Bulger, T. Dukes, T. Lowe, A. Schultz, M. Willman. Measurers
   K. Chambers, S. Chastel, T. de Boer, L. Denneau, J. Fairlamb, H.
   Flewelling, M. Huber, C.-C. Lin, E. Magnier, Y. Ramanjooloo, R. Wainscoat,
   R. Weryk. 1.8-m Ritchey-Chrétien + CCD.
(V06) Catalina Sky Survey-Kuiper  (N32.416871 W110.732550)  US/Arizona.
   Observers T. A. Pruyne, B. M. Africano, E. J. Christensen, G. A. Farneth,
   D. C. Fuls, A. R. Gibbs, A. D. Grauer, H. Gröller, J. A. Johnson, R. A.
   Kowalski, S. M. Larson, G. J. Leonard, D. Rankin, R. L. Seaman, F. C.
   Shelly, K. W. Wierzchoś. 1.55-m reflector + CCD.

Orbital elements:  P21XXNv
   Perihelion 2025 Oct 28.66264 +/- 17.6 TT = 15:54:12 (JD 2460977.16264)
Epoch 2024 Sep 10.0 TT = JDT 2460563.5   Earth MOID: 0.7236   Ma: 0.0524
M 205.60354129 +/- 5.4              (J2000 ecliptic)             AutoNEOCP
n   0.37324245 +/- 0.00285          Peri.  343.91995 +/- 4.4
a   1.91047793 +/- 0.00972          Node   155.29411 +/- 0.032
e   0.1060213 +/- 0.00297           Incl.   22.57242 +/- 0.6
P   2.641/964.502d         H 19.83  G  0.15   U  8.8
q 1.70792650 +/- 0.00304    Q 2.11302936 +/- 0.0164
From 12 observations 2024 Sept. 4-10; mean residual 0".12
Residuals in arcseconds: 
240904 F52  .05+  .04-    240904 F52  .22+  .26+    240907 V06  .10-  .03+    
240904 F52  .19-  .17-    240907 V06  .26-  .08+    240910 F52  .11-  .07-    
240904 F52  .04+  .11+    240907 V06  .15+  .02+    240910 F52  .05+  .01-    
240904 F52  .10-  .16-    240907 V06  .02+  .04-    240910 F52  .07+  .07+    

Ephemerides (geocentric):
Date (UTC) HH   RA             Dec           delta  r     elong  mag " sig PA
---- --------  ------------   ------------  ------ ------ -----  --- --------
2024 09 11 00  22 23 12.992   -14 04 29.66  1.1110 2.0962 163.6 22.2 .140  68
2024 09 11 01  22 23 10.760   -14 05 16.32  1.1111 2.0961 163.6 22.2 .149  70
2024 09 11 02  22 23 08.530   -14 06 02.96  1.1113 2.0961 163.5 22.2 .158  72
2024 09 11 03  22 23 06.301   -14 06 49.56  1.1114 2.0961 163.5 22.2 .168  73
2024 09 11 04  22 23 04.075   -14 07 36.14  1.1115 2.0961 163.4 22.2 .178  75
2024 09 11 05  22 23 01.849   -14 08 22.70  1.1117 2.0961 163.3 22.2 .188  76
2024 09 11 06  22 22 59.626   -14 09 09.23  1.1118 2.0960 163.3 22.2 .199  77
2024 09 11 07  22 22 57.404   -14 09 55.73  1.1119 2.0960 163.2 22.2 .209  78
2024 09 11 08  22 22 55.184   -14 10 42.20  1.1121 2.0960 163.2 22.2 .221  79
2024 09 11 09  22 22 52.966   -14 11 28.65  1.1122 2.0960 163.1 22.2 .232  80
2024 09 11 10  22 22 50.749   -14 12 15.07  1.1124 2.0960 163.1 22.2 .244  81
2024 09 11 11  22 22 48.534   -14 13 01.47  1.1125 2.0959 163.0 22.2 .256  82
2024 09 11 12  22 22 46.321   -14 13 47.84  1.1126 2.0959 163.0 22.2 .268  82
2024 09 11 13  22 22 44.110   -14 14 34.18  1.1128 2.0959 162.9 22.2 .280  83
2024 09 11 14  22 22 41.900   -14 15 20.50  1.1129 2.0959 162.9 22.2 .293  83
2024 09 11 15  22 22 39.692   -14 16 06.78  1.1131 2.0959 162.8 22.2 .306  84
2024 09 11 16  22 22 37.486   -14 16 53.04  1.1132 2.0958 162.8 22.2 .319  84
2024 09 11 17  22 22 35.281   -14 17 39.28  1.1133 2.0958 162.7 22.2 .333  85
2024 09 11 18  22 22 33.078   -14 18 25.48  1.1135 2.0958 162.6 22.2 .347  85
2024 09 11 19  22 22 30.877   -14 19 11.66  1.1136 2.0958 162.6 22.2 .361  85
2024 09 11 20  22 22 28.678   -14 19 57.82  1.1138 2.0958 162.5 22.2 .375  86
2024 09 11 21  22 22 26.481   -14 20 43.94  1.1139 2.0957 162.5 22.2 .389  86
2024 09 11 22  22 22 24.285   -14 21 30.04  1.1141 2.0957 162.4 22.3 .404  86
2024 09 11 23  22 22 22.091   -14 22 16.11  1.1142 2.0957 162.4 22.3 .419  86
2024 09 12 00  22 22 19.899   -14 23 02.15  1.1143 2.0957 162.3 22.3 .434  87
2024 09 12 01  22 22 17.709   -14 23 48.17  1.1145 2.0957 162.3 22.3 .449  87
2024 09 12 02  22 22 15.521   -14 24 34.16  1.1146 2.0956 162.2 22.3 .465  87
2024 09 12 03  22 22 13.334   -14 25 20.11  1.1148 2.0956 162.2 22.3 .481  87
2024 09 12 04  22 22 11.149   -14 26 06.05  1.1149 2.0956 162.1 22.3 .497  87
2024 09 12 05  22 22 08.966   -14 26 51.95  1.1151 2.0956 162.1 22.3 .514  87
2024 09 12 06  22 22 06.785   -14 27 37.83  1.1152 2.0956 162.0 22.3 .530  87
2024 09 12 07  22 22 04.606   -14 28 23.68  1.1154 2.0955 161.9 22.3 .547  87
2024 09 12 08  22 22 02.428   -14 29 09.50  1.1155 2.0955 161.9 22.3 .564  87
2024 09 12 09  22 22 00.253   -14 29 55.29  1.1157 2.0955 161.8 22.3 .582  88
2024 09 12 10  22 21 58.079   -14 30 41.05  1.1158 2.0955 161.8 22.3 .599  88
2024 09 12 11  22 21 55.907   -14 31 26.79  1.1160 2.0955 161.7 22.3 .617  88
2024 09 12 12  22 21 53.737   -14 32 12.50  1.1161 2.0954 161.7 22.3 .635  88
2024 09 12 13  22 21 51.569   -14 32 58.18  1.1163 2.0954 161.6 22.3 .654  88
2024 09 12 14  22 21 49.402   -14 33 43.83  1.1164 2.0954 161.6 22.3 .672  88
2024 09 12 15  22 21 47.238   -14 34 29.45  1.1166 2.0954 161.5 22.3 .691  88
2024 09 12 16  22 21 45.075   -14 35 15.05  1.1167 2.0954 161.5 22.3 .710  88
2024 09 12 17  22 21 42.915   -14 36 00.61  1.1169 2.0953 161.4 22.3 .730  88
2024 09 12 18  22 21 40.756   -14 36 46.15  1.1170 2.0953 161.4 22.3 .749  88
2024 09 12 19  22 21 38.599   -14 37 31.66  1.1172 2.0953 161.3 22.3 .769  88
2024 09 12 20  22 21 36.444   -14 38 17.14  1.1173 2.0953 161.2 22.3 .790  88
2024 09 12 21  22 21 34.291   -14 39 02.59  1.1175 2.0952 161.2 22.3 .810  88
2024 09 12 22  22 21 32.140   -14 39 48.01  1.1176 2.0952 161.1 22.3 .831  88
2024 09 12 23  22 21 29.991   -14 40 33.41  1.1178 2.0952 161.1 22.3 .852  88